Inquirer Daily News

Weather

Get conditions and forecasts for any City, State, ZIP code or Country:  
Trenton, NJ
on Monday, December 24, 2012

Monday
Previous Day Next Day
Daily Summary
 ActualAverageRecord
Temperature
Mean Temperature °F 33°F  
Max Temperature 39°F 41°F 63°F (1990)
Min Temperature 23°F 25°F -1°F (1983)
Degree Days
Heating Degree Days 34 32  
Month to date heating degree days 531 689  
Since 1 July heating degree days 1538 1665  
Cooling Degree Days 0 0  
Month to date cooling degree days 0 0  
Year to date cooling degree days 1234 965  
Moisture
Dew Point 26°F   
Average Humidity 72    
Maximum Humidity 96    
Minimum Humidity 48    
Precipitation
Precipitation 0.15 in 0.10 in 1.95 in (2003)
Month to date precipitation 2.87 3.08  
Year to date precipitation 36.10 45.82  
Wind
Wind Speed 4 mph   
Max Wind Speed 10 mph   
Max Gust Speed 14 mph   
Visibility 7 miles   
Events Rain , Snow   

Key: T is trace of precipitation, MM is missing value
Source: NWS Daily Summary
Time(EST)TemperatureDew PointHumidity Pressure Visibility Wind DirectionWind SpeedGust SpeedPrecipitationEvents Conditions
12:53 AM 32.0°F 21.9°F 66% 29.96 in 10.0 miles Calm Calm - N/A   Clear
1:53 AM 30.9°F 21.0°F 67% 29.98 in 10.0 miles NNW 4.6 mph - N/A   Clear
2:53 AM 28.9°F 21.0°F 72% 29.99 in 10.0 miles Calm Calm - N/A   Clear
3:53 AM 30.9°F 19.9°F 64% 29.99 in 10.0 miles NNW 3.5 mph - N/A   Clear
4:53 AM 28.0°F 19.9°F 72% 30.00 in 10.0 miles Calm Calm - N/A   Clear
5:53 AM 28.0°F 21.0°F 75% 30.02 in 10.0 miles NNW 3.5 mph - N/A   Clear
6:53 AM 26.1°F 19.9°F 78% 30.06 in 10.0 miles WNW 3.5 mph - N/A   Clear
7:53 AM 26.1°F 21.0°F 81% 30.07 in 10.0 miles Calm Calm - N/A   Clear
8:53 AM 30.9°F 23.0°F 72% 30.08 in 10.0 miles NNW 4.6 mph - N/A   Clear
9:53 AM 34.0°F 24.1°F 67% 30.07 in 10.0 miles NNE 6.9 mph - N/A   Clear
10:53 AM 37.0°F 23.0°F 57% 30.06 in 10.0 miles NE 6.9 mph - N/A   Clear
11:53 AM 37.9°F 21.9°F 53% 30.04 in 10.0 miles NE 4.6 mph - N/A   Clear
12:53 PM 39.0°F 23.0°F 53% 30.04 in 10.0 miles Calm Calm - N/A   Clear
1:53 PM 39.0°F 21.9°F 50% 30.03 in 10.0 miles Variable 3.5 mph - N/A   Clear
2:53 PM 37.9°F 23.0°F 55% 30.03 in 10.0 miles South 5.8 mph - N/A   Clear
3:53 PM 37.9°F 24.1°F 57% 30.02 in 10.0 miles SSW 3.5 mph - N/A   Mostly Cloudy
4:53 PM 37.9°F 23.0°F 55% 30.00 in 10.0 miles Calm Calm - N/A   Overcast
5:53 PM 35.1°F 27.0°F 72% 30.00 in 3.0 miles SSE 4.6 mph - 0.00 in Snow Light Snow
6:03 PM 33.8°F 28.4°F 81% 30.01 in 2.0 miles SE 5.8 mph - 0.00 in Snow Light Snow
6:19 PM 33.8°F 30.2°F 87% 30.01 in 1.2 miles SE 5.8 mph - 0.01 in Snow Light Snow
6:48 PM 32.0°F 30.2°F 93% 30.00 in 1.0 miles ESE 3.5 mph - 0.03 in Snow Light Snow
6:53 PM 32.0°F 30.9°F 96% 29.99 in 1.0 miles ESE 3.5 mph - 0.03 in Snow Light Snow
7:18 PM 32.0°F 30.2°F 93% 29.98 in 1.2 miles ESE 5.8 mph - 0.02 in Snow Light Snow
7:53 PM 32.0°F 30.9°F 96% 29.96 in 1.2 miles East 8.1 mph - 0.05 in Snow Light Snow
8:07 PM 33.8°F 30.2°F 87% 29.96 in 3.0 miles East 9.2 mph - 0.01 in Snow Light Snow
8:53 PM 33.1°F 30.9°F 92% 29.93 in 5.0 miles East 6.9 mph - 0.03 in Rain Light Rain
9:53 PM 33.1°F 32.0°F 96% 29.93 in 5.0 miles East 4.6 mph - 0.01 in Rain Light Rain
10:42 PM 33.8°F 32.0°F 93% 29.93 in 2.5 miles ENE 4.6 mph - 0.01 in Rain Light Rain
10:53 PM 33.1°F 32.0°F 96% 29.92 in 2.0 miles ENE 5.8 mph - 0.01 in Rain Light Rain
11:53 PM 34.0°F 32.0°F 92% 29.89 in 2.5 miles East 4.6 mph - 0.02 in   Overcast
Astronomy
Sunrise:07:20 AM (EST) Moon Rise:02:04 PM (EST)12/24
Sunset:04:38 PM (EST) Moon Set:03:56 AM (EST)12/24
Moon Phase
Dec. 24 Dec. 28 Jan. 04 Jan. 11 Jan. 18

Copyright © 2014 The Weather Underground, Inc.